Regional Weather Roundup
Issued by NWS Jackson, KY

Home | Current Version | Previous Version | Graphics & Text | Print | Product List | Glossary On
Versions: 1 2 3 4 5 6 7 8 9 10 11 12 13 14 15 16 17 18 19 20 21 22 23 24 25 26 27 28 29 30 31 32 33 34 35 36 37 38 39 40 41 42 43 44 45 46 47 48 49 50
000
ASUS43 KJKL 200910
RWRJKL

EAST KENTUCKY HOURLY WEATHER ROUNDUP
NATIONAL WEATHER SERVICE JACKSON KY
500 AM EDT FRI APR 20 2018

NOTE: "FAIR" INDICATES FEW OR NO CLOUDS BELOW 12,000 FEET WITH
NO SIGNIFICANT WEATHER AND/OR OBSTRUCTIONS TO VISIBILITY.

* THESE REPORTS ARE NOT UNDER NWS QUALITY CONTROL AND MAY NOT
  REPORT WEATHER SUCH AS PRECIPITATION AND FOG.

KYZ079-080-083-085-087-088-110-112-115-119-120-201000
...EASTERN KENTUCKY...

CITY           SKY/WX    TMP DP  RH WIND       PRES   REMARKS
JACKSON          N/A     38  28  67 NW3       30.34R
LONDON           N/A     31  29  92 CALM      30.35R
SOMERSET*        N/A     32  32 100 CALM      30.38S
MONTICELLO*      N/A     26  23  88 W8        30.38R WCI  18
WILLIAMSBURG*    N/A     28  28 100 CALM      30.36R
MIDDLESBORO*     N/A     30  30 100 CALM      30.37R
HARLAN APT*      N/A     30  30  98 CALM      30.35R
PIKE CO APT*     N/A     37  29  75 W5        30.33S WCI  33
BIG SANDY APT*   N/A     37  30  77 CALM      30.35R
MOREHEAD APT*    N/A     36  28  75 CALM      30.38R
$$

KYZ035-036-041-042-044-050-067-078-099-201000
...CENTRAL KENTUCKY...

CITY           SKY/WX    TMP DP  RH WIND       PRES   REMARKS
MT STERLING*     N/A     36  30  80 N6        30.38S WCI  31
FLEMING/MASON*   N/A     36  31  81 N5        30.39R WCI  32
DANVILLE*        N/A     32  28  86 CALM      30.38R
LEXINGTON        N/A     37  26  64 N6        30.38R WCI  32
FRANKFORT        N/A     36  25  64 N5        30.38R WCI  32
LOUISVILLE       N/A     40  23  50 N12       30.41R WCI  33
GLASGOW*         N/A     31  31  99 NE5       30.37R WCI  26
BOWLING GREEN    N/A     35  33  92 CALM      30.37S
$$

KYZ091>093-OHZ055-061-077-WVZ005-015-034-035-042-201000
...SOUTHERN OHIO/WEST VIRGINIA...

CITY           SKY/WX    TMP DP  RH WIND       PRES   REMARKS
COVINGTON        N/A     36  27  69 N8        30.39R WCI  30
COLUMBUS         N/A     33  26  75 CALM      30.37R
DAYTON           N/A     31  29  92 NW5       30.39R WCI  26
WILMINGTON       N/A     33  30  88 N5        30.37R WCI  29
HUNTINGTON       N/A     37  30  75 N5        30.36R WCI  33
CHARLESTON       N/A     33  29  85 CALM      30.35R
PINEVILLE*       N/A     29  28  95 MISG        N/A
BECKLEY          N/A     34  25  69 NW8       30.27R WCI  27
BLUEFIELD        N/A     31  24  75 W7        30.27R WCI  24
LOGAN CO APT*    N/A     37  28  70 CALM      30.31R
$$

VAZ002-007-008-TNZ017-027-036-066-071-201000
...SOUTHWEST VIRGINIA/EAST TENNESSEE...

CITY           SKY/WX    TMP DP  RH WIND       PRES   REMARKS
WISE*            N/A     34  30  86 W6        30.30S WCI  29
JONESVILLE*      N/A     28  28 100 CALM      30.37R
ABINGDON*        N/A     32  29  88 CALM      30.31R
BRISTOL          N/A     30  29  96 CALM      30.33R
MORRISTOWN*    MOSUNNY   34  30  86 CALM      30.34R
SEVIERVILLE*   SUNNY     32  30  93 CALM      30.35R
KNOXVILLE        N/A     38  30  73 N8        30.33R WCI  32
LAFOLLETTE*    SUNNY     30  30 100 CALM      30.39R
OAK RIDGE        N/A     35  33  92 CALM      30.37R
CROSSVILLE       N/A     33  27  78 E5        30.32R WCI  29
NASHVILLE        N/A     38  32  79 CALM      30.36S
$$

...KEY TO REMARKS...
VSB - VISIBILITY IN MILES
WCI - WIND CHILL INDEX
HX  - HEAT INDEX

$$



USA.gov is the U.S. government's official web portal to all federal, state and local government web resources and services.